Wind_Speed
26 27 27 26 27 27 28 27 26 25 24 25 25 24 24 25 23 11 7 7 8 15 20 17 9 9 10 4 4 3 2 2 3 8 5 10 7 5 7 14 5 10 7 16 26
28 28 28 28 28 29 29 28 26 26 26 25 24 23 22 23 20 11 10 11 13 23 21 18 11 12 4 3 3 4 2 2 4 6 7 13 10 9 7 15 7 7 12 26 28
29 30 31 31 30 30 30 28 28 27 26 25 24 21 18 16 6 3 7 9 17 23 15 13 15 8 5 3 5 4 4 3 5 7 11 15 10 7 11 11 11 15 22 28 27
31 33 34 34 34 34 32 31 29 29 28 25 22 19 13 5 5 3 8 14 18 15 12 11 10 7 5 6 5 4 10 10 3 8 13 16 12 7 12 2 11 16 25 27 25
34 36 37 38 37 36 35 32 33 29 25 22 18 13 3 2 9 7 9 2 13 19 14 10 12 6 5 4 4 8 7 6 12 12 11 14 10 4 11 2 16 21 24 21 20
36 37 39 40 40 39 37 37 29 28 26 21 15 4 3 7 8 10 16 12 13 20 14 9 9 6 3 4 5 1 5 3 11 11 12 12 6 5 8 10 17 23 24 21 19
37 39 42 42 42 43 38 29 33 24 16 13 11 8 4 15 6 9 7 9 15 21 12 17 4 4 3 4 4 1 3 8 11 14 6 12 5 10 10 14 18 20 20 20 20
40 42 44 45 44 43 32 34 22 13 12 6 13 7 8 8 14 21 7 4 9 13 1 10 6 3 3 5 2 3 3 5 8 14 9 12 4 11 14 17 18 20 19 18 20
41 43 44 45 45 39 31 23 7 13 17 16 7 3 8 4 5 14 21 17 9 6 3 6 6 3 3 5 3 2 5 6 9 14 8 13 4 8 14 15 16 18 19 18 17
41 42 43 44 44 28 30 6 2 5 4 3 3 3 6 1 3 4 13 17 6 11 5 4 3 5 4 9 11 11 6 9 9 13 12 13 8 9 14 15 16 17 18 19 19
40 41 43 43 40 26 22 3 4 1 5 6 6 8 8 11 2 5 8 15 9 10 11 9 9 15 18 19 5 10 9 14 10 11 15 15 11 10 15 14 15 16 18 19 21
40 43 44 41 31 22 11 6 6 5 12 13 20 17 28 11 6 3 17 10 13 14 12 7 18 18 9 10 10 9 10 11 7 11 13 10 14 11 18 21 19 19 19 20 20
40 41 45 41 15 20 10 8 14 4 6 10 8 8 8 16 11 9 14 8 18 18 23 18 12 15 12 12 13 11 13 9 11 8 3 7 11 9 14 16 17 18 19 19 21
40 41 44 37 5 20 2 21 24 3 5 6 4 4 5 8 10 21 22 8 7 23 21 14 10 20 16 20 17 17 10 8 11 13 11 9 9 7 13 18 19 21 21 21 21
40 41 40 20 10 6 16 27 19 4 6 4 2 1 4 10 2 14 22 9 15 14 12 16 19 15 21 25 20 14 12 11 7 7 6 7 6 4 6 13 20 23 23 24 22
39 41 34 10 9 17 28 21 1 2 8 6 5 6 2 11 4 4 15 9 5 9 14 13 4 17 19 16 18 13 11 6 4 4 9 9 8 11 7 10 10 18 23 25 25
40 41 19 7 8 25 22 3 3 5 8 7 9 12 13 7 8 7 19 22 16 16 16 14 12 10 16 16 15 11 16 7 7 7 9 7 8 16 7 7 12 9 21 25 26
40 34 7 10 24 17 7 1 7 5 10 8 11 18 8 6 7 12 15 24 21 15 16 18 17 15 17 16 15 22 19 10 11 9 11 4 9 11 5 6 11 11 13 18 23
38 27 3 19 20 6 2 4 5 6 3 8 13 9 5 4 7 6 16 25 25 23 14 16 15 19 9 11 17 22 11 8 7 2 9 10 10 10 12 12 7 8 9 15 20
26 11 5 30 10 2 3 5 5 3 4 2 8 3 6 11 8 9 12 16 27 25 15 11 10 13 24 16 13 15 18 11 4 11 12 8 7 10 5 6 4 8 7 11 16
8 4 8 26 3 0 4 4 6 9 8 4 5 5 5 10 9 6 3 5 24 21 17 13 11 11 20 18 20 9 15 7 11 7 13 11 11 8 11 8 11 12 7 8 15
6 4 14 22 1 2 2 6 7 10 9 11 9 10 11 10 8 5 5 5 13 7 18 13 8 9 16 23 14 18 15 20 12 9 7 8 15 7 9 7 5 8 11 7 11
4 3 8 9 3 5 8 9 7 6 6 5 5 4 2 4 5 8 5 4 11 9 11 14 9 9 10 8 9 24 14 11 10 9 16 15 17 6 4 7 5 4 8 6 7
3 4 3 4 2 7 10 10 6 6 13 7 7 3 2 6 9 9 8 7 15 8 11 3 9 19 13 17 11 21 21 13 15 12 15 21 17 7 9 8 5 7 3 2 6
2 2 2 4 4 12 7 9 10 4 6 4 3 8 5 3 3 5 5 8 6 9 5 3 18 12 14 7 17 17 21 19 20 17 15 17 15 14 10 7 8 6 2 2 6
2 2 0 6 7 8 7 3 5 6 3 5 7 16 11 3 2 4 8 3 3 9 7 6 8 17 17 14 13 17 18 21 22 21 20 18 17 12 11 7 10 14 8 9 6
1 1 1 6 5 5 4 7 11 15 5 7 12 17 9 2 12 16 14 16 14 7 5 6 2 12 20 14 17 16 17 18 17 17 19 17 18 8 8 11 11 13 9 11 11
Wind_Direction
6 5 2 360 356 353 351 346 340 337 333 330 329 330 331 329 325 310 251 239 209 184 166 142 139 148 174 220 215 185 237 279 198 178 178 156 145 125 113 143 160 173 150 149 157
4 3 1 357 354 351 348 344 339 333 328 326 324 325 328 331 324 273 285 212 201 172 158 162 157 160 194 216 197 220 243 237 231 209 178 167 166 143 144 154 142 139 130 144 156
4 3 1 357 354 349 346 341 336 330 325 320 317 318 325 334 295 243 60 195 187 178 176 178 159 173 212 208 182 170 239 205 251 223 163 155 161 156 148 189 180 172 157 155 163
2 1 358 355 353 350 345 339 333 326 319 313 309 309 319 340 262 156 114 79 170 173 155 159 163 182 211 215 190 231 243 244 247 164 155 160 151 159 171 128 174 167 164 160 168
3 1 358 354 352 348 342 337 329 323 315 308 301 303 339 227 246 217 195 71 160 179 176 185 173 174 209 208 187 237 288 289 229 167 157 146 170 152 186 11 152 153 163 170 173
2 1 357 355 352 347 341 336 331 322 311 296 281 264 155 248 246 228 246 239 197 189 191 179 198 216 245 235 227 155 307 5 153 149 143 154 156 159 182 133 150 158 168 174 183
1 0 356 354 351 346 341 341 327 323 315 295 231 169 210 242 207 177 150 203 200 184 182 198 205 211 178 253 282 301 143 96 149 145 135 144 158 215 156 153 157 169 173 177 186
0 359 356 353 351 345 345 341 333 343 324 284 165 160 246 265 233 227 185 122 172 180 161 201 190 257 247 305 245 190 187 177 171 171 154 188 229 190 164 160 166 174 180 185 192
359 358 354 351 350 344 345 342 28 46 62 104 123 202 257 280 224 235 218 215 155 162 114 124 161 196 190 226 187 203 195 187 164 195 157 199 262 172 172 175 170 180 187 188 196
358 356 352 351 348 353 344 2 38 28 44 19 94 255 243 228 235 184 191 166 163 183 197 184 145 194 184 194 193 188 200 202 185 191 195 203 224 162 183 186 182 187 192 195 197
356 355 351 349 347 6 359 11 342 202 0 272 287 277 285 323 278 201 152 170 138 168 172 186 190 202 196 201 236 191 200 203 195 177 193 224 234 190 187 202 195 195 201 203 206
355 354 350 348 345 1 31 77 80 293 299 263 245 253 255 273 307 211 153 158 179 182 155 158 212 207 216 213 224 195 187 209 202 165 204 201 227 203 191 206 203 200 205 210 209
352 352 350 348 346 358 52 88 344 317 255 286 226 230 222 191 219 230 186 166 186 179 189 198 206 198 207 204 205 202 197 184 214 154 179 182 232 205 210 213 211 214 217 216 215
349 350 348 349 15 343 86 334 331 247 285 272 233 256 174 173 229 209 193 171 181 196 186 211 186 188 195 212 203 207 194 175 167 180 215 207 262 220 206 211 216 214 212 216 216
347 347 344 346 322 341 314 323 325 196 302 44 128 102 164 206 11 195 184 190 188 171 182 191 191 184 197 205 196 216 167 180 166 162 184 182 238 253 192 225 223 219 215 215 214
344 344 340 337 328 328 328 329 176 192 249 319 22 13 345 232 266 121 183 194 159 160 205 189 207 183 203 203 195 140 124 87 88 189 222 197 229 266 224 225 234 217 217 215 213
342 342 341 350 336 325 329 347 223 208 319 337 337 336 319 261 224 206 188 183 176 175 186 190 177 189 186 188 197 193 168 163 199 207 223 188 209 244 239 246 244 224 211 213 212
341 343 352 4 337 334 329 169 236 214 233 332 334 317 278 338 234 203 198 195 196 188 171 186 203 183 189 198 185 200 191 193 194 198 209 147 221 232 253 263 251 240 225 211 209
339 343 29 349 341 340 286 232 235 224 284 320 334 307 295 342 356 283 210 208 194 184 172 188 209 194 182 186 180 187 205 198 195 49 208 200 241 277 254 255 242 250 227 216 208
333 329 312 352 357 356 217 251 266 283 344 326 264 331 318 336 321 337 194 208 202 201 194 187 195 197 192 190 192 196 180 185 222 194 213 198 239 235 197 209 258 281 229 225 216
350 332 355 353 5 44 261 284 306 310 307 274 236 279 273 317 320 300 307 20 198 195 208 168 211 166 185 199 183 167 191 215 197 226 212 223 235 212 230 250 270 283 296 256 218
357 318 354 349 296 45 314 318 314 292 295 261 252 255 271 290 291 285 313 12 358 274 203 184 191 198 192 197 210 200 192 194 196 187 225 240 245 178 223 240 263 279 310 308 222
337 285 338 348 34 360 327 299 265 282 312 298 270 240 219 251 284 274 280 330 6 355 214 187 204 174 184 181 201 204 187 192 210 179 201 216 241 158 232 258 238 264 335 352 191
329 326 335 24 24 359 332 302 298 294 279 278 292 324 301 242 236 274 299 315 334 334 321 256 194 211 204 204 171 197 196 203 200 204 194 220 237 218 217 234 226 211 330 285 216
4 11 34 313 331 324 296 279 282 294 294 298 204 22 332 256 257 254 314 312 292 1 348 264 209 199 205 170 189 182 194 199 213 219 214 209 220 217 209 231 282 297 223 225 197
316 326 359 295 299 302 299 309 308 347 290 314 349 331 328 255 48 322 345 281 339 328 351 356 202 203 215 197 196 202 196 196 209 213 227 239 236 233 248 278 282 280 278 286 218
228 256 267 288 291 296 294 331 314 319 276 261 318 323 307 42 316 288 274 265 272 303 315 346 198 183 214 199 216 229 201 198 202 209 208 215 230 213 230 232 245 257 255 270 282
Height
819 815 812 808 805 801 798 794 791 789 785 782 779 776 774 770 768 765 763 757 756 758 762 767 770 771 773 770 768 768 780 783 777 777 771 768 776 777 778 787 787 790 794 797 808
819 815 811 807 804 800 797 793 790 786 783 780 778 775 773 769 764 759 752 751 752 755 760 762 766 769 771 768 768 771 779 773 759 755 763 766 770 778 784 788 792 793 795 800 808
819 815 811 807 803 798 794 790 787 783 780 777 775 773 772 769 765 751 749 747 750 754 758 761 764 765 769 766 766 768 771 759 755 751 754 764 772 772 781 790 787 791 795 799 806
819 815 811 806 801 796 791 787 783 779 776 773 771 770 770 769 772 750 750 748 751 756 759 761 763 767 768 769 760 772 756 754 751 750 756 765 766 774 776 777 776 785 791 795 801
819 814 809 804 799 793 788 783 778 774 771 769 767 768 769 769 756 749 748 750 753 755 756 757 761 762 767 762 760 765 753 748 748 751 754 760 768 772 776 774 777 786 795 799 802
819 814 808 801 796 790 784 778 772 768 764 763 763 765 769 769 744 745 746 747 749 752 754 756 755 755 758 759 760 754 754 751 748 755 759 766 773 770 775 776 781 786 792 798 803
818 813 806 800 792 785 778 773 767 761 758 756 758 763 765 746 741 742 743 744 745 747 750 752 754 755 754 758 749 752 760 753 756 757 766 764 782 777 773 778 784 789 793 797 802
817 811 804 797 790 781 774 769 762 759 755 753 756 762 753 735 737 740 742 743 744 748 749 751 754 755 757 752 753 757 757 766 762 758 767 763 779 769 773 778 785 788 793 796 800
816 809 803 795 788 779 772 765 763 760 756 756 760 762 746 734 734 732 737 741 746 748 749 751 753 756 757 764 765 763 768 767 773 756 765 768 775 771 773 777 783 787 790 792 797
814 808 801 793 786 777 769 764 762 762 761 761 762 762 738 731 729 729 731 737 743 747 753 753 755 760 763 764 773 766 769 761 764 761 761 771 775 777 776 777 781 784 787 789 791
814 807 799 792 784 778 769 766 768 764 763 756 753 749 737 732 728 727 729 735 738 743 753 752 761 763 754 749 746 745 754 758 753 751 762 765 768 774 776 778 779 781 783 784 785
813 806 798 790 783 779 774 777 787 791 771 751 746 743 734 736 738 725 727 731 736 745 746 760 759 746 748 751 754 752 755 758 748 751 756 765 766 767 769 768 769 773 776 778 780
812 805 797 789 782 780 781 786 787 785 776 739 731 729 724 730 728 723 722 724 730 739 740 746 739 743 752 754 758 752 750 759 751 756 756 762 767 770 764 764 766 767 768 771 773
812 805 797 789 787 785 784 784 782 781 765 735 725 718 719 718 722 710 714 717 728 733 737 741 735 741 749 751 747 754 745 746 752 758 774 755 781 767 757 763 761 761 761 763 765
810 804 797 791 791 789 787 781 779 779 772 721 719 714 715 714 706 704 704 713 721 726 729 735 736 744 747 739 738 743 738 745 752 759 762 770 773 748 755 759 752 749 751 752 755
808 802 795 791 790 788 781 777 778 773 773 731 719 724 720 714 707 704 704 703 707 721 720 725 723 728 731 729 734 737 745 756 759 759 781 761 764 749 746 740 730 735 739 742 745
806 800 793 791 791 785 779 776 776 772 743 740 740 734 730 719 708 705 705 708 712 734 737 730 730 722 721 738 735 737 745 777 788 786 780 761 768 745 725 725 721 721 725 727 733
803 796 793 793 788 782 781 773 782 755 747 739 742 735 731 716 707 702 705 707 695 700 721 735 750 724 713 721 732 737 732 752 789 785 771 772 766 738 716 709 707 707 710 717 723
802 794 793 791 785 782 779 777 760 756 751 753 740 740 729 722 723 708 700 696 689 686 710 724 728 704 712 710 714 734 747 723 746 772 760 747 738 721 711 709 708 706 709 710 713
804 798 794 790 785 784 778 776 767 760 756 754 751 749 749 735 727 718 698 682 689 683 680 700 725 707 709 709 714 719 717 751 752 775 777 758 754 740 720 711 705 701 705 704 705
805 798 793 788 786 783 778 776 774 763 761 757 751 752 746 744 734 723 705 693 677 687 684 694 699 715 704 710 716 727 730 728 723 736 754 764 745 709 711 707 703 694 695 697 697
813 797 794 789 785 793 786 790 786 769 759 754 750 748 746 744 737 730 718 705 700 693 693 685 695 714 712 696 695 701 711 714 733 760 742 738 729 695 695 693 699 696 691 690 689
816 813 797 793 791 793 791 784 781 774 765 757 749 745 742 743 745 728 717 704 704 700 687 683 692 717 724 714 708 705 708 709 707 717 739 748 723 694 696 694 694 694 689 689 692
816 806 801 803 804 802 799 785 779 771 765 761 754 745 746 740 735 727 721 710 707 704 703 698 689 692 705 699 697 711 706 710 706 724 725 719 711 704 698 697 691 693 693 693 693
819 813 817 811 802 805 802 789 787 778 768 762 754 753 752 746 738 732 728 722 704 708 702 696 692 688 683 686 690 696 704 708 712 708 720 707 718 698 693 692 687 687 690 692 693
818 818 817 814 809 803 793 792 790 785 784 762 759 759 753 744 741 742 741 729 722 712 707 701 692 688 692 685 687 696 692 696 699 702 707 703 705 687 682 686 690 683 686 686 685
819 819 819 811 807 802 791 790 791 788 775 775 770 766 749 742 745 742 742 735 731 734 720 711 699 695 702 693 693 706 691 693 696 692 697 712 692 685 688 689 686 681 679 679 674